Location: *
(51.8167°N, 12.5000°E)
Time: 09:05:25
(UTC+00:00)

NOSS 3-4 (A) - Pass Details

Date: 16 September 2019
Orbit: 910 x 1303 km, 63.4° (Epoch: 21 September)

Event Time Altitude Azimuth Distance (km) Brightness Sun altitude
Rises 19:27:47 0° 314° (NW) 3,816 8.1 -19.0°
Reaches altitude 10° 19:30:23 10° 310° (NW) 2,914 7.2 -19.4°
Maximum altitude 19:37:05 53° 236° (SW) 1,388 4.4 -20.3°
Enters shadow 19:42:03 21° 168° (SSE) 2,403 5.1 -20.9°
